Bemidji, MN

12:21 AM CST on February 20, 2018 (GMT -0600)
Bemidji-Beltrami County

Weather History for KBJI - November, 2013

Change the Weather History Date:

Friday, November 22, 2013

  Actual Average Record
Temperature  
Mean Temperature 7 °F -  
Max Temperature 15 °F 30 °F 59 °F (2006)
Min Temperature -1 °F 12 °F -15 °F (1977)
Degree Days  
Heating Degree Days 58    
Moisture  
Dew Point 2 °F    
Average Humidity 79    
Maximum Humidity 87    
Minimum Humidity 57    
Precipitation  
Precipitation 0.00 in - - ()
Sea Level Pressure  
Sea Level Pressure 30.48 in    
Wind  
Wind Speed 8 mph (West)    
Max Wind Speed 21 mph    
Max Gust Speed 24 mph    
Visibility 8 miles    
Events Snow    
Averages and records for this station are not official NWS values.
T = Trace of Precipitation, MM = Missing Value Source: NWS Daily Summary

Daily Weather History Graph

Daily Weather History Graph

Search for Another Location

Airport or City:

Trip Planner

Search our weather history database for the weather conditions in past years. The results will help you decide how hot, cold, wet, or windy it might be!

Date:

Astronomy

Nov. 22, 2013 Rise Set
Actual Time 7:35 AM CST 4:36 PM CST
Civil Twilight 7:00 AM CST 5:10 PM CST
Nautical Twilight 6:22 AM CST 5:48 PM CST
Astronomical Twilight 5:46 AM CST 6:25 PM CST
Moon 9:15 PM CST (11/22) 11:14 AM CST (11/22)
Length of Visible Light 10h 09m
Length of Day
9h 01m
Waning Gibbous, 78% of the Moon is Illuminated
Nov 22
Waning Gibbous
Nov 25
Last Quarter
Dec 2
New
Dec 9
First Quarter
Dec 17
Full

Hourly Weather History & Observations

Time (CST) Temp. Windchill Dew Point Humidity Pressure Visibility Wind Dir Wind Speed Gust Speed Precip Events Conditions
12:12 AM 4.6 °F -2.5 °F 1.4 °F 86% 30.51 in 10.0 mi SW 3.5 mph - N/A   Clear
12:31 AM 4.6 °F -4.5 °F 1.4 °F 86% 30.51 in 10.0 mi SW 4.6 mph - N/A   Clear
12:52 AM 4.1 °F -5.1 °F 1.0 °F 87% 30.50 in 10.0 mi SW 4.6 mph - N/A   Clear
1:12 AM 4.1 °F -3.2 °F 0.5 °F 85% 30.49 in 10.0 mi SW 3.5 mph - N/A   Clear
1:31 AM 3.4 °F - -0.0 °F 86% 30.48 in 10.0 mi Calm Calm - N/A   Clear
1:52 AM 3.2 °F -4.2 °F -0.4 °F 85% 30.48 in 10.0 mi SSW 3.5 mph - N/A   Clear
2:11 AM 3.2 °F - -0.6 °F 84% 30.48 in 10.0 mi Calm Calm - N/A   Clear
2:31 AM 3.6 °F -5.7 °F -0.2 °F 84% 30.48 in 10.0 mi SW 4.6 mph - N/A   Clear
2:52 AM 2.3 °F -7.2 °F -1.3 °F 85% 30.46 in 10.0 mi South 4.6 mph - N/A   Clear
3:12 AM 2.8 °F -9.5 °F -1.3 °F 83% 30.45 in 10.0 mi South 6.9 mph - N/A   Clear
3:31 AM 2.7 °F -8.4 °F -1.5 °F 83% 30.44 in 10.0 mi South 5.8 mph - N/A   Clear
3:52 AM 2.7 °F -8.4 °F -1.5 °F 83% 30.44 in 10.0 mi SSW 5.8 mph - N/A   Clear
4:11 AM 3.4 °F -10.0 °F -1.5 °F 80% 30.43 in 10.0 mi South 8.1 mph - N/A   Clear
4:31 AM 3.4 °F -7.5 °F -2.0 °F 78% 30.41 in 10.0 mi South 5.8 mph - N/A   Clear
4:52 AM 3.9 °F -8.2 °F -2.0 °F 76% 30.39 in 10.0 mi South 6.9 mph - N/A   Clear
5:12 AM 5.0 °F -9.1 °F -1.7 °F 74% 30.38 in 10.0 mi SSW 9.2 mph - N/A   Clear
5:31 AM 4.8 °F -5.8 °F -1.8 °F 74% 30.38 in 10.0 mi South 5.8 mph - N/A   Clear
5:51 AM 5.5 °F -6.3 °F -1.3 °F 73% 30.38 in 10.0 mi SW 6.9 mph - N/A   Clear
6:11 AM 5.9 °F -5.8 °F -0.4 °F 75% 30.38 in 10.0 mi SW 6.9 mph - N/A   Clear
6:31 AM 6.3 °F -4.1 °F -0.4 °F 74% 30.38 in 10.0 mi SW 5.8 mph - N/A   Clear
6:52 AM 6.6 °F -3.7 °F -0.0 °F 74% 30.38 in 10.0 mi SSW 5.8 mph - N/A   Clear
7:12 AM 6.8 °F -3.5 °F 0.1 °F 74% 30.38 in 10.0 mi SW 5.8 mph - N/A   Mostly Cloudy
7:31 AM 7.7 °F -2.4 °F 0.5 °F 72% 30.38 in 10.0 mi SW 5.8 mph - N/A   Mostly Cloudy
7:52 AM 8.6 °F -2.6 °F 1.4 °F 73% 30.39 in 10.0 mi WSW 6.9 mph - N/A   Mostly Cloudy
8:12 AM 10.4 °F -0.4 °F 3.2 °F 73% 30.39 in 10.0 mi West 6.9 mph - N/A   Overcast
8:31 AM 12.2 °F -0.2 °F 4.8 °F 72% 30.39 in 10.0 mi West 9.2 mph 16.1 mph N/A   Overcast
8:51 AM 12.7 °F -0.4 °F 5.7 °F 74% 30.39 in 10.0 mi West 10.4 mph 18.4 mph N/A   Overcast
9:12 AM 13.6 °F 0.0 °F 5.9 °F 71% 30.39 in 10.0 mi West 11.5 mph - N/A   Overcast
9:31 AM 13.6 °F 0.0 °F 6.3 °F 72% 30.41 in 10.0 mi West 11.5 mph - N/A   Overcast
9:52 AM 13.8 °F 0.2 °F 7.5 °F 76% 30.41 in 4.0 mi WNW 11.5 mph - N/A Snow Light Snow
10:11 AM 14.5 °F 1.1 °F 8.6 °F 77% 30.41 in 5.0 mi WNW 11.5 mph - N/A   Haze
10:31 AM 14.9 °F 1.6 °F 9.7 °F 80% 30.41 in 3.0 mi West 11.5 mph - N/A Snow Light Snow
10:51 AM 14.9 °F 2.3 °F 9.7 °F 80% 30.41 in 3.0 mi WNW 10.4 mph - N/A Snow Light Snow
11:11 AM 14.9 °F 3.1 °F 10.2 °F 82% 30.41 in 2.0 mi WNW 9.2 mph - N/A Snow Light Snow
11:31 AM 14.9 °F 0.9 °F 9.9 °F 80% 30.41 in 2.5 mi WNW 12.7 mph - N/A Snow Light Snow
11:52 AM 15.3 °F 0.8 °F 9.7 °F 79% 30.41 in 4.0 mi WNW 13.8 mph 19.6 mph N/A Snow Light Snow
12:12 PM 15.3 °F 0.2 °F 9.3 °F 77% 30.42 in 7.0 mi WNW 15.0 mph 20.7 mph N/A Snow Light Snow
12:31 PM 15.6 °F 1.8 °F 10.4 °F 80% 30.42 in 3.0 mi WNW 12.7 mph 18.4 mph N/A Snow Light Snow
12:51 PM 15.6 °F 1.2 °F 9.7 °F 77% 30.43 in 5.0 mi NW 13.8 mph - N/A Snow Light Snow
1:11 PM 15.3 °F 2.0 °F 9.0 °F 76% 30.43 in 5.0 mi WNW 11.5 mph - N/A Snow Light Snow
1:31 PM 15.8 °F 1.4 °F 9.7 °F 77% 30.43 in 5.0 mi WNW 13.8 mph 19.6 mph N/A Snow Light Snow
1:52 PM 15.6 °F -1.8 °F 8.2 °F 73% 30.44 in 10.0 mi WNW 20.7 mph 24.2 mph N/A Snow Light Snow
2:12 PM 13.6 °F -1.9 °F 6.4 °F 73% 30.44 in 10.0 mi NW 15.0 mph - N/A   Overcast
2:31 PM 13.8 °F -3.2 °F 4.8 °F 67% 30.45 in 10.0 mi WNW 18.4 mph - N/A   Mostly Cloudy
2:52 PM 13.5 °F -3.2 °F 0.7 °F 57% 30.46 in 10.0 mi WNW 17.3 mph 20.7 mph N/A   Scattered Clouds
3:11 PM 12.6 °F -3.8 °F 1.6 °F 62% 30.47 in 10.0 mi WNW 16.1 mph 21.9 mph N/A   Scattered Clouds
3:31 PM 10.8 °F -6.7 °F 1.9 °F 68% 30.48 in 10.0 mi WNW 17.3 mph - N/A   Mostly Cloudy
3:52 PM 9.3 °F -9.6 °F 1.4 °F 70% 30.49 in 10.0 mi WNW 19.6 mph 24.2 mph N/A   Overcast
4:11 PM 9.0 °F -8.5 °F 1.4 °F 71% 30.50 in 10.0 mi WNW 16.1 mph - N/A   Overcast
4:31 PM 8.6 °F -8.3 °F 3.0 °F 78% 30.51 in 4.0 mi WNW 15.0 mph 20.7 mph N/A Snow Light Snow
4:52 PM 7.7 °F -8.2 °F 1.9 °F 77% 30.51 in 7.0 mi WNW 12.7 mph - N/A   Overcast
5:11 PM 7.0 °F -10.4 °F 1.9 °F 80% 30.53 in 4.0 mi WNW 15.0 mph - N/A Snow Light Snow
5:31 PM 6.6 °F -10.2 °F 1.4 °F 79% 30.53 in 5.0 mi WNW 13.8 mph - N/A Snow Light Snow
5:51 PM 6.8 °F -10.0 °F 1.9 °F 80% 30.54 in 4.0 mi WNW 13.8 mph - N/A Snow Light Snow
6:11 PM 6.1 °F -10.2 °F 1.4 °F 81% 30.55 in 5.0 mi WNW 12.7 mph - N/A Snow Light Snow
6:31 PM 5.7 °F -10.7 °F 1.0 °F 81% 30.56 in 4.0 mi WNW 12.7 mph - N/A Snow Light Snow
6:52 PM 5.5 °F -10.2 °F 1.2 °F 82% 30.57 in 5.0 mi WNW 11.5 mph - N/A Snow Light Snow
7:12 PM 5.2 °F -13.3 °F 0.7 °F 82% 30.58 in 7.0 mi WNW 16.1 mph 19.6 mph N/A   Overcast
7:31 PM 4.6 °F -12.0 °F 0.3 °F 82% 30.58 in 7.0 mi WNW 12.7 mph 17.3 mph N/A Snow Light Snow
7:52 PM 4.1 °F -12.0 °F -0.0 °F 83% 30.59 in 10.0 mi WNW 11.5 mph - N/A   Overcast
8:12 PM 3.6 °F -14.1 °F -0.6 °F 83% 30.60 in 10.0 mi WNW 13.8 mph - N/A   Overcast
8:31 PM 2.3 °F -15.0 °F -1.7 °F 84% 30.61 in 10.0 mi WNW 12.7 mph - N/A   Overcast
8:51 PM 1.4 °F -15.3 °F -2.2 °F 85% 30.62 in 10.0 mi WNW 11.5 mph - N/A   Scattered Clouds
9:12 PM 0.5 °F -17.3 °F -3.1 °F 85% 30.62 in 10.0 mi NW 12.7 mph - N/A   Clear
9:31 PM 0.3 °F -16.7 °F -3.3 °F 85% 30.62 in 10.0 mi NW 11.5 mph - N/A   Scattered Clouds
9:52 PM -0.4 °F -16.7 °F -4.0 °F 85% 30.63 in 10.0 mi NW 10.4 mph - N/A   Mostly Cloudy
10:11 PM -0.4 °F -17.6 °F -4.0 °F 85% 30.63 in 10.0 mi NW 11.5 mph - N/A   Clear
10:31 PM -0.8 °F -16.2 °F -4.4 °F 85% 30.64 in 10.0 mi WNW 9.2 mph - N/A   Clear
10:52 PM -1.3 °F -16.8 °F -4.9 °F 85% 30.65 in 10.0 mi WNW 9.2 mph - N/A   Clear
11:12 PM -1.7 °F -17.3 °F -5.3 °F 85% 30.65 in 10.0 mi NW 9.2 mph - N/A   Clear
11:31 PM -1.8 °F -17.5 °F -5.4 °F 85% 30.66 in 10.0 mi WNW 9.2 mph - N/A   Mostly Cloudy
11:51 PM -0.8 °F -17.2 °F -4.4 °F 85% 30.67 in 10.0 mi WNW 10.4 mph - N/A   Overcast